ARIANE 42P R/B, 22079

Orbit data source: Space-Track

ARIANE 42P R/B, 22079 is space debris in LEO originally from a launch on Mon, 10 Aug 1992 UTC launched from the French Guiana (FRGUI). Debris objects in space refer to the collection of defunct objects orbiting the Earth. Examples of debris include non-operational satellites, rocket bodies, and fragments generated from explosions, collisions, or faulty payload assembly.

Loading next visibility...
Identifier
22079, 1992-052D
Orbit
LEO
Country
Flag of FRFR
Related business
Manufacturer
Ae/LesM
Mission
Spacecraft
Bus & Motor
ARIANE H10, Unknown motor
Mass
1,875 kg wet, 1,820 kg dry
Launch date (UTC)
1992-08-10 (33 years ago)
Launch vehicle
Unknown
Launch site
French Guiana (FRGUI)
Object type
Payload
Rocket body
Debris
Shape & HBR
Cyl, 6.0 m
Radar Cross Section
27.363 m², Large (>1 m²)

Expand to show TLE details & history
Last TLE update: 18 hours ago

TLE from 18 hours ago
0 ARIANE 42P R/B
1 22079U 92052D   25260.20119427 -.00000028  00000-0  14560-3 0  9999
2 22079  66.0656 149.4697 0061496  65.4774 107.6904 12.77949798544508
Epoch: 2025-09-17T04:49Z
TLE epoch observation values (Epoch: 2025-09-17T04:49:43.184Z)
Latitude
5.56962°
Longitude
-101.80916°
Altitude
1,365.791 km
Speed
7.17 km/s
True Right ascension
21h 48m 00s
True Declination
5° 32' 21"
Sunlit
Object was in full shadow at epoch
Visualization orbit readout
Latitude
Unknown
Longitude
Unknown
Altitude
Unknown
Speed
Unknown
Apparent Right ascension
Unknown
Apparent Declination
Unknown
Sunlit
N/A
Visualization observer readout
Local Sidereal Time
15:41:15
Azimuth
Unknown
Elevation
Unknown
Doppler factor
Unknown
Orbital elements
Apogee altitude
1,395.801 km
Perigee altitude
1,300.772 km
Semi-major axis
7,726.423 km
Eccentricity
0.00615
Inclination
66.0656°
RAAN
149.4697°
Arg. of periapsis
65.4774°
True anomaly
108.36019°
Mean anomaly
107.6904°
Eccentric anomaly
108.02545°
Mean motion
3.19577 °/min
Orbital period
112.65 mins
BSTAR
0.0001456
Loading maneuver chart data...
Computing Atmospheric mass density...
Loading historical data...
Loading historical data...
Loading historical data...
Loading historical data...
Loading historical data...
Loading historical data...
Loading historical data...

Documentation

Showing up to 5 results
|